Zurück zum Katalog

KUIPER-00410

AktivKommunikationLEO
NORAD 68926·PAYLOAD·🇺🇸 United States

Gestartet Apr 30, 2026 von Guiana Space Centre

Loading…

Nächste Überflüge (nächste 24 Stunden)

TLE

AktuellSource: CelesTrak SupGP

Epoche: Sep 14, 2026, 21:38 UTC

1 68926C 26098H   26257.90149306  .00004760  00000+0  62296-3 0  2571
2 68926  51.8982  18.9305 0001202 138.5412 211.3636 14.79934340    18

Verfolge KUIPER-00410 in Echtzeit mit AllMySat

Download on the App Store